User: anonymous   Login
Location: Fauquembergues
(50.6005°N, 2.0987°E)
Time: 22:06:54
(UTC+00:00)
Language:

COBE Rocket - Orbit

View from above orbital plane
View from above orbital plane
View from above satellite
View from above satellite

Ground track
Ground track

The orbit data is extracted from the following two-line orbital elements,

1 20323U 89089B   20263.31429566 +.00000037 +00000-0 +18933-4 0  9991
2 20323 097.1038 034.1886 0070298 296.2318 063.1665 14.48358494606455
Epoch (UTC): 19 September 2020 07:32:35
Eccentricity: 0.0070298
inclination: 97.1038°
perigee height: 681 km
apogee height: 781 km
right ascension of ascending node: 34.1886°
argument of perigee: 296.2318°
revolutions per day: 14.48358494
mean anomaly at epoch: 63.1665°
orbit number at epoch: 60645

The dashed part of the orbit path shows where the satellite is in the earth's shadow,  

DLR